| time (UTC) | temp C | wind direction | speed KPH | gust KPH | rain 1hr cm | rain 24hr cm | rain mn cm | humidity % | barometer mb |
| 20260504081546 | 8 | 36 | 25.7 | 41.8 | 0.00 | 0.00 | 0.00 | 54 | 1001.3 |
| 20260504050013 | 13 | 50 | 35.4 | 46.7 | 0.00 | 0.00 | 0.00 | 38 | 996.3 |
| 20260504044514 | 13 | 40 | 24.1 | 33.8 | 0.00 | 0.00 | 0.00 | 37 | 995.8 |
| 20260504043013 | 13 | 35 | 22.5 | 29.0 | 0.00 | 0.00 | 0.00 | 36 | 995.5 |
| 20260504041512 | 14 | 48 | 20.9 | 27.4 | 0.00 | 0.00 | 0.00 | 36 | 995.3 |
| 20260504040014 | 14 | 46 | 17.7 | 29.0 | 0.00 | 0.00 | 0.00 | 36 | 995.0 |
| 20260504034518 | 15 | 46 | 19.3 | 29.0 | 0.00 | 0.00 | 0.00 | 35 | 994.7 |
| 20260504033009 | 15 | 38 | 24.1 | 33.8 | 0.00 | 0.00 | 0.00 | 35 | 994.2 |
| 20260504031509 | 16 | 50 | 25.7 | 35.4 | 0.00 | 0.00 | 0.00 | 33 | 993.9 |
| 20260504030007 | 16 | 50 | 20.9 | 33.8 | 0.00 | 0.00 | 0.00 | 30 | 993.7 |
| 20260504024509 | 17 | 49 | 17.7 | 27.4 | 0.00 | 0.00 | 0.00 | 26 | 993.4 |
| 20260504023007 | 17 | 34 | 4.8 | 8.0 | 0.00 | 0.00 | 0.00 | 23 | 993.2 |
| 20260504021505 | 18 | 28 | 8.0 | 14.5 | 0.00 | 0.00 | 0.00 | 22 | 993.3 |
| 20260504020004 | 20 | 29 | 14.5 | 20.9 | 0.00 | 0.00 | 0.00 | 21 | 993.3 |
| 20260504014504 | 21 | 10 | 11.3 | 20.9 | 0.00 | 0.00 | 0.00 | 20 | 993.4 |
| 20260504013003 | 22 | 355 | 17.7 | 25.7 | 0.00 | 0.00 | 0.00 | 19 | 993.3 |
| 20260504011502 | 22 | 355 | 19.3 | 27.4 | 0.00 | 0.00 | 0.00 | 19 | 993.4 |
| 20260504010100 | 22 | 5 | 16.1 | 29.0 | 0.00 | 0.00 | 0.00 | 18 | 993.5 |
| 20260504004559 | 23 | 338 | 22.5 | 30.6 | 0.00 | 0.00 | 0.00 | 18 | 993.6 |
| 20260504003057 | 23 | 336 | 20.9 | 35.4 | 0.00 | 0.00 | 0.00 | 18 | 993.7 |
| 20260504001555 | 23 | 360 | 12.9 | 30.6 | 0.00 | 0.00 | 0.00 | 17 | 993.8 |
| 20260504000134 | 23 | 321 | 17.7 | 30.6 | 0.00 | 0.00 | 0.00 | 17 | 994.0 |
| 20260503234553 | 23 | 360 | 22.5 | 29.0 | 0.00 | 0.00 | 0.00 | 17 | 993.9 |
| 20260503233051 | 23 | 360 | 16.1 | 24.1 | 0.00 | 0.00 | 0.00 | 17 | 994.1 |
| 20260503231551 | 23 | 294 | 11.3 | 27.4 | 0.00 | 0.00 | 0.00 | 17 | 994.3 |
| 20260503230053 | 23 | 319 | 19.3 | 33.8 | 0.00 | 0.00 | 0.00 | 17 | 994.4 |
| 20260503224546 | 23 | 309 | 14.5 | 27.4 | 0.00 | 0.00 | 0.00 | 18 | 994.6 |
| 20260503223045 | 23 | 336 | 16.1 | 35.4 | 0.00 | 0.00 | 0.00 | 17 | 994.8 |
| 20260503221543 | 23 | 348 | 14.5 | 30.6 | 0.00 | 0.00 | 0.00 | 18 | 995.1 |
| 20260503220040 | 23 | 304 | 11.3 | 22.5 | 0.00 | 0.00 | 0.00 | 20 | 995.2 |
| 20260503214537 | 23 | 313 | 24.1 | 32.2 | 0.00 | 0.00 | 0.00 | 18 | 995.5 |
| 20260503213034 | 23 | 335 | 19.3 | 30.6 | 0.00 | 0.00 | 0.00 | 18 | 995.6 |
| 20260503211531 | 22 | 250 | 22.5 | 29.0 | 0.00 | 0.00 | 0.00 | 18 | 996.1 |
| 20260503210028 | 22 | 308 | 16.1 | 32.2 | 0.00 | 0.00 | 0.00 | 18 | 996.2 |
| 20260503204527 | 22 | 336 | 8.0 | 27.4 | 0.00 | 0.00 | 0.00 | 19 | 996.3 |
| 20260503203031 | 22 | 323 | 12.9 | 29.0 | 0.00 | 0.00 | 0.00 | 19 | 996.8 |
| 20260503201521 | 22 | 321 | 11.3 | 25.7 | 0.00 | 0.00 | 0.00 | 19 | 996.9 |
| 20260503200018 | 22 | 283 | 22.5 | 33.8 | 0.00 | 0.00 | 0.00 | 19 | 997.2 |
| 20260503194516 | 21 | 285 | 22.5 | 33.8 | 0.00 | 0.00 | 0.00 | 21 | 997.4 |
| 20260503193013 | 22 | 300 | 25.7 | 37.0 | 0.00 | 0.00 | 0.00 | 20 | 997.7 |
| 20260503191511 | 21 | 275 | 17.7 | 32.2 | 0.00 | 0.00 | 0.00 | 20 | 997.9 |
| 20260503190007 | 21 | 319 | 19.3 | 38.6 | 0.00 | 0.00 | 0.00 | 19 | 998.0 |
| 20260503184512 | 21 | 285 | 20.9 | 35.4 | 0.00 | 0.00 | 0.00 | 21 | 998.2 |
| 20260503183002 | 21 | 337 | 14.5 | 32.2 | 0.00 | 0.00 | 0.00 | 20 | 998.3 |
| 20260503181600 | 21 | 295 | 19.3 | 32.2 | 0.00 | 0.00 | 0.00 | 20 | 998.5 |
| 20260503180058 | 21 | 322 | 16.1 | 25.7 | 0.00 | 0.00 | 0.00 | 22 | 998.7 |
| 20260503174553 | 20 | 295 | 17.7 | 30.6 | 0.00 | 0.00 | 0.00 | 24 | 999.0 |
| 20260503173050 | 20 | 327 | 16.1 | 29.0 | 0.00 | 0.00 | 0.00 | 25 | 999.1 |
| 20260503171607 | 18 | 296 | 12.9 | 24.1 | 0.00 | 0.00 | 0.00 | 29 | 999.2 |